TimeEST,TemperatureF,Dew PointF,Humidity,Sea Level PressureIn,VisibilityMPH,Wind Direction,Wind SpeedMPH,Gust SpeedMPH,PrecipitationIn,Events,Conditions,WindDirDegrees,DateUTC
12:54 AM,30.9,26.1,82,29.91,10.0,Calm,Calm,-,N/A,,Overcast,0,2014-03-08 05:54:00
1:54 AM,30.9,25.0,79,29.90,10.0,South,3.5,-,N/A,,Overcast,190,2014-03-08 06:54:00
2:50 AM,28.4,21.2,74,29.86,10.0,Calm,Calm,-,N/A,,Overcast,0,2014-03-08 07:50:00
2:54 AM,28.9,21.9,75,29.87,10.0,Calm,Calm,-,N/A,,Overcast,0,2014-03-08 07:54:00
3:33 AM,30.0,25.0,82,29.85,10.0,Calm,Calm,-,N/A,,Mostly Cloudy,0,2014-03-08 08:33:00
3:54 AM,28.0,23.0,81,29.86,10.0,SSW,3.5,-,N/A,,Partly Cloudy,210,2014-03-08 08:54:00
4:54 AM,24.1,21.0,88,29.86,9.0,Calm,Calm,-,N/A,,Clear,0,2014-03-08 09:54:00
5:54 AM,21.0,18.0,88,29.86,9.0,Calm,Calm,-,N/A,,Clear,0,2014-03-08 10:54:00
6:01 AM,21.0,19.0,92,29.84,2.0,Calm,Calm,-,N/A,,Partly Cloudy,0,2014-03-08 11:01:00
6:08 AM,19.9,18.0,92,29.84,1.8,Calm,Calm,-,N/A,,Scattered Clouds,0,2014-03-08 11:08:00
6:10 AM,19.9,18.0,92,29.84,2.0,Calm,Calm,-,N/A,,Mostly Cloudy,0,2014-03-08 11:10:00
6:17 AM,21.0,17.1,85,29.84,4.0,Calm,Calm,-,N/A,,Mostly Cloudy,0,2014-03-08 11:17:00
6:34 AM,19.9,17.1,89,29.84,1.8,Calm,Calm,-,N/A,,Mostly Cloudy,0,2014-03-08 11:34:00
6:43 AM,19.9,17.1,89,29.84,3.0,Calm,Calm,-,N/A,,Mostly Cloudy,0,2014-03-08 11:43:00
6:54 AM,19.9,17.1,89,29.86,9.0,Calm,Calm,-,N/A,,Scattered Clouds,0,2014-03-08 11:54:00
7:54 AM,24.1,19.9,84,29.86,9.0,Calm,Calm,-,N/A,,Partly Cloudy,0,2014-03-08 12:54:00
8:54 AM,32.0,24.1,73,29.86,10.0,South,3.5,-,N/A,,Clear,190,2014-03-08 13:54:00
9:54 AM,39.0,26.1,60,29.84,10.0,SSW,9.2,-,N/A,,Mostly Cloudy,210,2014-03-08 14:54:00
10:54 AM,42.1,26.1,53,29.83,10.0,SW,11.5,-,N/A,,Partly Cloudy,230,2014-03-08 15:54:00
11:54 AM,44.1,28.0,53,29.80,10.0,South,9.2,-,N/A,,Scattered Clouds,190,2014-03-08 16:54:00
12:54 PM,48.0,27.0,44,29.78,10.0,West,8.1,-,N/A,,Mostly Cloudy,270,2014-03-08 17:54:00
1:54 PM,50.0,26.1,39,29.78,10.0,WNW,15.0,-,N/A,,Clear,300,2014-03-08 18:54:00
2:54 PM,51.1,26.1,38,29.78,10.0,WNW,9.2,-,N/A,,Clear,300,2014-03-08 19:54:00
3:54 PM,50.0,26.1,39,29.78,10.0,WNW,8.1,-,N/A,,Clear,300,2014-03-08 20:54:00
4:54 PM,48.0,26.1,42,29.80,10.0,West,11.5,19.6,N/A,,Overcast,280,2014-03-08 21:54:00
5:54 PM,46.0,25.0,44,29.83,10.0,WNW,11.5,19.6,N/A,,Overcast,290,2014-03-08 22:54:00
6:54 PM,45.0,25.0,46,29.86,10.0,WNW,8.1,-,N/A,,Overcast,300,2014-03-08 23:54:00
7:54 PM,43.0,25.0,49,29.88,10.0,NW,5.8,-,N/A,,Overcast,310,2014-03-09 00:54:00
8:54 PM,41.0,26.1,55,29.89,10.0,NW,4.6,-,N/A,,Overcast,310,2014-03-09 01:54:00
9:54 PM,41.0,26.1,55,29.90,9.0,West,6.9,-,N/A,,Overcast,270,2014-03-09 02:54:00
10:54 PM,39.9,26.1,58,29.90,10.0,WNW,9.2,-,0.00,,Overcast,290,2014-03-09 03:54:00
11:54 PM,39.0,25.0,57,29.90,10.0,WNW,10.4,-,N/A,,Overcast,300,2014-03-09 04:54:00